Port Heiden, AK

10:57 AM AKDT on April 29, 2017 (GMT -0800)
Port Heiden

Weather History for PAPH - December, 2013

Change the Weather History Date:

Thursday, December 26, 2013

  Actual Average Record
Temperature  
Mean Temperature 29 °F -  
Max Temperature 39 °F 26 °F 43 °F (2014)
Min Temperature 19 °F 16 °F -5 °F (2010)
Degree Days  
Heating Degree Days 36    
Moisture  
Dew Point 26 °F    
Average Humidity 69    
Maximum Humidity 75    
Minimum Humidity 52    
Precipitation  
Precipitation 0.00 in - - ()
Sea Level Pressure  
Sea Level Pressure 29.61 in    
Wind  
Wind Speed 7 mph (East)    
Max Wind Speed 17 mph    
Max Gust Speed 18 mph    
Visibility 10 miles    
Events      
Averages and records for this station are not official NWS values.
T = Trace of Precipitation, MM = Missing Value Source: NWS Daily Summary

Daily Weather History Graph

Daily Weather History Graph

Search for Another Location

Airport or City:

Trip Planner

Search our weather history database for the weather conditions in past years. The results will help you decide how hot, cold, wet, or windy it might be!

Date:

Astronomy

Dec. 26, 2013 Rise Set
Actual Time 10:12 AM AKST 4:58 PM AKST
Civil Twilight 9:23 AM AKST 5:47 PM AKST
Nautical Twilight 8:32 AM AKST 6:38 PM AKST
Astronomical Twilight 7:45 AM AKST 7:25 PM AKST
Moon 2:59 AM AKST (12/26) 1:29 PM AKST (12/26)
Length of Visible Light 8h 24m
Length of Day
6h 45m
Last Quarter, 37% of the Moon is Illuminated
Dec 26
Last Quarter
Jan 1
New
Jan 7
First Quarter
Jan 15
Full
Jan 23
Last Quarter

Hourly Weather History & Observations

Time (AKST) Temp. Windchill Dew Point Humidity Pressure Visibility Wind Dir Wind Speed Gust Speed Precip Events Conditions
12:16 AM 33.8 °F 27.0 °F 24.8 °F 70% 29.63 in 10.0 mi East 8.1 mph - N/A   Overcast
12:36 AM 33.8 °F 29.6 °F 26.6 °F 75% 29.63 in 10.0 mi ENE 4.6 mph - N/A   Overcast
12:56 AM 35.6 °F 31.7 °F 26.6 °F 70% 29.63 in 10.0 mi ENE 4.6 mph - N/A   Overcast
1:16 AM 35.6 °F 31.7 °F 26.6 °F 70% 29.63 in 10.0 mi East 4.6 mph - N/A   Overcast
1:56 AM 35.6 °F 29.2 °F 26.6 °F 70% 29.63 in 10.0 mi East 8.1 mph - N/A   Mostly Cloudy
2:16 AM 33.8 °F 28.6 °F 24.8 °F 70% 29.63 in 10.0 mi ENE 5.8 mph - N/A   Scattered Clouds
2:56 AM 33.8 °F 28.6 °F 24.8 °F 70% 29.63 in 10.0 mi ENE 5.8 mph - N/A   Clear
3:16 AM 32.0 °F 26.4 °F 24.8 °F 75% 29.63 in 10.0 mi NE 5.8 mph - N/A   Clear
3:36 AM 33.8 °F 28.6 °F 24.8 °F 70% 29.63 in 10.0 mi NE 5.8 mph - N/A   Clear
3:56 AM 33.8 °F 29.6 °F 24.8 °F 70% 29.63 in 10.0 mi ENE 4.6 mph - N/A   Clear
4:16 AM 30.2 °F 23.4 °F 21.2 °F 69% 29.63 in 10.0 mi NE 6.9 mph - N/A   Clear
4:36 AM 33.8 °F 27.0 °F 24.8 °F 70% 29.63 in 10.0 mi ENE 8.1 mph - N/A   Clear
4:56 AM 32.0 °F 25.6 °F 21.2 °F 64% 29.63 in 10.0 mi ENE 6.9 mph - N/A   Clear
5:16 AM 33.8 °F 27.7 °F 26.6 °F 75% 29.63 in 10.0 mi NE 6.9 mph - N/A   Clear
5:36 AM 33.8 °F 27.7 °F 24.8 °F 70% 29.63 in 10.0 mi NE 6.9 mph - N/A   Scattered Clouds
5:56 AM 33.8 °F 27.0 °F 23.0 °F 65% 29.62 in 10.0 mi NE 8.1 mph - N/A   Overcast
6:16 AM 32.0 °F 24.2 °F 24.8 °F 75% 29.62 in 10.0 mi ENE 9.2 mph - N/A   Overcast
6:36 AM 33.8 °F 27.0 °F 26.6 °F 75% 29.62 in 10.0 mi ENE 8.1 mph - N/A   Overcast
6:56 AM 33.8 °F 26.4 °F 26.6 °F 75% 29.62 in 10.0 mi ENE 9.2 mph - N/A   Overcast
7:16 AM 32.0 °F 26.4 °F 24.8 °F 75% 29.62 in 10.0 mi NE 5.8 mph - N/A   Overcast
7:36 AM 32.0 °F 26.4 °F 21.2 °F 64% 29.62 in 10.0 mi ENE 5.8 mph - N/A   Overcast
7:56 AM 32.0 °F 26.4 °F 21.2 °F 64% 29.62 in 10.0 mi ENE 5.8 mph - N/A   Mostly Cloudy
8:16 AM 33.8 °F 29.6 °F 21.2 °F 60% 29.61 in 10.0 mi ENE 4.6 mph - N/A   Overcast
8:36 AM 33.8 °F 29.6 °F 21.2 °F 60% 29.61 in 10.0 mi East 4.6 mph - N/A   Overcast
8:56 AM 35.6 °F - 24.8 °F 65% 29.61 in 10.0 mi Calm Calm - N/A   Overcast
9:16 AM 35.6 °F - 24.8 °F 65% 29.61 in 10.0 mi Calm Calm - N/A   Mostly Cloudy
9:36 AM 35.6 °F 32.8 °F 24.8 °F 65% 29.62 in 10.0 mi East 3.5 mph - N/A   Mostly Cloudy
9:56 AM 33.8 °F - 24.8 °F 70% 29.63 in 10.0 mi Calm Calm - N/A   Mostly Cloudy
10:16 AM 30.2 °F 24.3 °F 21.2 °F 69% 29.63 in 10.0 mi North 5.8 mph - N/A   Overcast
10:36 AM 33.8 °F 28.6 °F 21.2 °F 60% 29.63 in 10.0 mi NNE 5.8 mph - N/A   Overcast
10:56 AM 33.8 °F - 26.6 °F 75% 29.63 in 10.0 mi Calm Calm - N/A   Overcast
11:16 AM 33.8 °F 28.6 °F 26.6 °F 75% 29.63 in 10.0 mi ENE 5.8 mph - N/A   Overcast
11:36 AM 33.8 °F 27.7 °F 24.8 °F 70% 29.63 in 10.0 mi ENE 6.9 mph - N/A   Overcast
11:56 AM 35.6 °F 31.7 °F 24.8 °F 65% 29.63 in 10.0 mi ENE 4.6 mph - N/A   Overcast
12:16 PM 33.8 °F 29.6 °F 24.8 °F 70% 29.62 in 10.0 mi NE 4.6 mph - N/A   Overcast
12:36 PM 37.4 °F 32.8 °F 24.8 °F 60% 29.61 in 10.0 mi ENE 5.8 mph - N/A   Mostly Cloudy
12:56 PM 35.6 °F 32.8 °F 24.8 °F 65% 29.62 in 10.0 mi ENE 3.5 mph - N/A   Overcast
1:16 PM 35.6 °F 32.8 °F 26.6 °F 70% 29.62 in 10.0 mi SE 3.5 mph - N/A   Overcast
1:36 PM 37.4 °F 32.8 °F 28.4 °F 70% 29.62 in 10.0 mi East 5.8 mph - N/A   Overcast
1:56 PM 37.4 °F 31.4 °F 28.4 °F 70% 29.62 in 10.0 mi ESE 8.1 mph - N/A   Overcast
2:16 PM 37.4 °F 32.1 °F 28.4 °F 70% 29.62 in 10.0 mi ESE 6.9 mph - N/A   Overcast
2:36 PM 37.4 °F 31.4 °F 28.4 °F 70% 29.61 in 10.0 mi SE 8.1 mph - N/A   Overcast
2:56 PM 37.4 °F 30.3 °F 28.4 °F 70% 29.61 in 10.0 mi SE 10.4 mph - N/A   Overcast
3:16 PM 37.4 °F 29.3 °F 28.4 °F 70% 29.60 in 10.0 mi SE 12.7 mph - N/A   Overcast
3:36 PM 39.2 °F 32.0 °F 30.2 °F 70% 29.60 in 10.0 mi SE 11.5 mph - N/A   Overcast
3:56 PM 39.2 °F 32.0 °F 30.2 °F 70% 29.59 in 10.0 mi SE 11.5 mph - N/A   Overcast
4:16 PM 37.4 °F 29.8 °F 30.2 °F 75% 29.58 in 10.0 mi SE 11.5 mph - N/A   Mostly Cloudy
4:36 PM 39.2 °F 35.0 °F 30.2 °F 70% 29.59 in 10.0 mi ESE 5.8 mph - N/A   Overcast
4:56 PM 37.4 °F 32.1 °F 26.6 °F 65% 29.59 in 10.0 mi SE 6.9 mph - N/A   Mostly Cloudy
5:16 PM 37.4 °F 32.1 °F 30.2 °F 75% 29.60 in 10.0 mi SSE 6.9 mph - N/A   Partly Cloudy
5:36 PM 35.6 °F 29.9 °F 28.4 °F 75% 29.59 in 10.0 mi SSE 6.9 mph - N/A   Clear
5:56 PM 35.6 °F 28.6 °F 28.4 °F 75% 29.60 in 10.0 mi South 9.2 mph - N/A   Clear
6:16 PM 37.4 °F 30.8 °F 28.4 °F 70% 29.59 in 10.0 mi SSE 9.2 mph - N/A   Clear
6:36 PM 37.4 °F 32.8 °F 28.4 °F 70% 29.58 in 10.0 mi ESE 5.8 mph - N/A   Clear
6:56 PM 33.8 °F 27.0 °F 26.6 °F 75% 29.56 in 10.0 mi East 8.1 mph - N/A   Clear
7:16 PM 35.6 °F 29.9 °F 28.4 °F 75% 29.57 in 10.0 mi SE 6.9 mph - N/A   Clear
7:36 PM 37.4 °F 28.9 °F 28.4 °F 70% 29.58 in 10.0 mi SE 13.8 mph - N/A   Clear
7:56 PM 37.4 °F 29.8 °F 28.4 °F 70% 29.58 in 10.0 mi SE 11.5 mph - N/A   Clear
8:16 PM 37.4 °F 28.9 °F 28.4 °F 70% 29.59 in 10.0 mi SSE 13.8 mph - N/A   Clear
8:36 PM 37.4 °F 27.8 °F 28.4 °F 70% 29.58 in 10.0 mi SE 17.3 mph - N/A   Clear
8:56 PM 37.4 °F 28.9 °F 28.4 °F 70% 29.58 in 10.0 mi SSE 13.8 mph - N/A   Clear
9:16 PM 37.4 °F 27.8 °F 28.4 °F 70% 29.58 in 10.0 mi SE 17.3 mph - N/A   Clear
9:36 PM 37.4 °F 28.9 °F 28.4 °F 70% 29.58 in 10.0 mi SE 13.8 mph - N/A   Clear
9:56 PM 37.4 °F 28.9 °F 28.4 °F 70% 29.59 in 10.0 mi SSE 13.8 mph - N/A   Clear
10:16 PM 37.4 °F 30.3 °F 28.4 °F 70% 29.59 in 10.0 mi SE 10.4 mph - N/A   Clear
10:36 PM 37.4 °F 28.9 °F 28.4 °F 70% 29.59 in 10.0 mi SSE 13.8 mph 18.4 mph N/A   Clear
10:56 PM 37.4 °F 27.8 °F 28.4 °F 70% 29.58 in 10.0 mi SE 17.3 mph - N/A   Clear
11:16 PM 37.4 °F 27.8 °F 28.4 °F 70% 29.57 in 10.0 mi SE 17.3 mph - N/A   Clear
11:36 PM 37.4 °F 28.9 °F 28.4 °F 70% 29.58 in 10.0 mi SE 13.8 mph - N/A   Scattered Clouds
11:56 PM 37.4 °F 28.2 °F 28.4 °F 70% 29.57 in 10.0 mi SE 16.1 mph - N/A   Scattered Clouds